When you browse on this site, cookies collect data to enhance your experience and personalize the content and advertising you see.
Visit our Privacy Policy to learn more. By continuing to use the site, you agree to this use of cookies and data.
  • en Suisse
  • Liste des pays
  • À 7 jours
  • Température de l'eau
  • Carte météo
  • Widgets météo
  • user-avatar
    Se connecter

    Météo par heure à Barinas

    Ce jour, 21 Octobre, Lundi

    Heure Température Précipitation Vent Pression Humidité
    00:00 +25°C° 0 mm 1 m/s 743 mmHg 87%
    01:00 +25°C° 0 mm 1 m/s 743 mmHg 86%
    02:00 +25°C° 0 mm 1 m/s 742 mmHg 85%
    03:00 +24°C° 0 mm 1 m/s 742 mmHg 83%
    04:00 +24°C° 0 mm 1 m/s 742 mmHg 82%
    05:00 +25°C° 0 mm 1 m/s 743 mmHg 80%
    06:00 +26°C° 0 mm 1 m/s 743 mmHg 77%
    07:00 +27°C° 0 mm 1 m/s 744 mmHg 75%
    08:00 +29°C° 0 mm 1 m/s 744 mmHg 70%
    09:00 +31°C° 0 mm 2 m/s 744 mmHg 65%
    10:00 +32°C° 0 mm 2 m/s 744 mmHg 60%
    11:00 +34°C° 0.1 mm 2 m/s 743 mmHg 60%
    12:00 +34°C° 0.1 mm 2 m/s 742 mmHg 59%
    13:00 +34°C° 0.1 mm 2 m/s 741 mmHg 58%
    14:00 +34°C° 0.4 mm 2 m/s 741 mmHg 63%
    15:00 +32°C° 0.4 mm 2 m/s 741 mmHg 68%
    16:00 +32°C° 0.4 mm 1 m/s 740 mmHg 73%
    17:00 +30°C° 1.1 mm 1 m/s 741 mmHg 79%
    18:00 +28°C° 1.1 mm 1 m/s 741 mmHg 85%
    19:00 +27°C° 1.1 mm 1 m/s 741 mmHg 91%
    20:00 +27°C° 0.9 mm 1 m/s 742 mmHg 92%
    21:00 +26°C° 0.9 mm 1 m/s 742 mmHg 92%
    22:00 +26°C° 0.9 mm 1 m/s 742 mmHg 92%
    23:00 +26°C° 0.7 mm 1 m/s 742 mmHg 92%

    Demain, 22 Octobre, Mardi

    Heure Température Précipitation Vent Pression Humidité
    00:00 +25°C° 0.7 mm 1 m/s 742 mmHg 91%
    01:00 +25°C° 0.7 mm 1 m/s 742 mmHg 91%
    02:00 +25°C° 0 mm 1 m/s 742 mmHg 89%
    03:00 +25°C° 0 mm 1 m/s 741 mmHg 87%
    04:00 +24°C° 0 mm 1 m/s 741 mmHg 86%
    05:00 +25°C° 0 mm 1 m/s 742 mmHg 85%
    06:00 +26°C° 0 mm 1 m/s 742 mmHg 84%
    07:00 +26°C° 0 mm 1 m/s 743 mmHg 83%
    08:00 +28°C° 0.3 mm 1 m/s 743 mmHg 77%
    09:00 +30°C° 0.3 mm 1 m/s 743 mmHg 71%
    10:00 +31°C° 0.3 mm 2 m/s 743 mmHg 66%
    11:00 +31°C° 1.3 mm 2 m/s 742 mmHg 68%
    12:00 +31°C° 1.3 mm 2 m/s 741 mmHg 71%
    13:00 +31°C° 1.3 mm 2 m/s 741 mmHg 74%
    14:00 +31°C° 1.1 mm 2 m/s 740 mmHg 77%
    15:00 +30°C° 1.1 mm 2 m/s 740 mmHg 80%
    16:00 +30°C° 1.1 mm 2 m/s 740 mmHg 83%
    17:00 +28°C° 0.3 mm 1 m/s 740 mmHg 85%
    18:00 +27°C° 0.3 mm 1 m/s 740 mmHg 87%
    19:00 +26°C° 0.3 mm 1 m/s 741 mmHg 89%
    20:00 +26°C° 0.2 mm 1 m/s 741 mmHg 89%
    21:00 +25°C° 0.2 mm 1 m/s 741 mmHg 90%
    22:00 +25°C° 0.2 mm 1 m/s 742 mmHg 90%
    23:00 +25°C° 0 mm 1 m/s 742 mmHg 90%

    Après-demain, 23 Octobre, Mercredi

    Heure Température Précipitation Vent Pression Humidité
    00:00 +24°C° 0 mm 1 m/s 741 mmHg 89%
    01:00 +24°C° 0 mm 1 m/s 741 mmHg 89%
    02:00 +24°C° 0 mm 1 m/s 741 mmHg 88%
    03:00 +24°C° 0 mm 1 m/s 741 mmHg 88%
    04:00 +24°C° 0 mm 1 m/s 741 mmHg 87%
    05:00 +24°C° 0 mm 1 m/s 741 mmHg 85%
    06:00 +25°C° 0 mm 1 m/s 742 mmHg 83%
    07:00 +26°C° 0 mm 1 m/s 742 mmHg 81%
    08:00 +28°C° 0.1 mm 1 m/s 743 mmHg 74%
    09:00 +30°C° 0.1 mm 1 m/s 743 mmHg 68%
    10:00 +32°C° 0.1 mm 2 m/s 743 mmHg 61%
    11:00 +32°C° 0.1 mm 2 m/s 742 mmHg 60%
    12:00 +32°C° 0.1 mm 2 m/s 741 mmHg 59%
    13:00 +34°C° 0.1 mm 2 m/s 740 mmHg 58%
    14:00 +32°C° 0.1 mm 2 m/s 740 mmHg 61%
    15:00 +32°C° 0.1 mm 2 m/s 740 mmHg 64%
    16:00 +32°C° 0.1 mm 2 m/s 740 mmHg 67%
    17:00 +30°C° 0 mm 1 m/s 740 mmHg 73%
    18:00 +28°C° 0 mm 1 m/s 740 mmHg 79%
    19:00 +27°C° 0 mm 1 m/s 741 mmHg 85%
    20:00 +26°C° 0 mm 1 m/s 741 mmHg 87%
    21:00 +26°C° 0 mm 1 m/s 742 mmHg 88%
    22:00 +25°C° 0 mm 1 m/s 742 mmHg 89%
    23:00 +25°C° 0.1 mm 1 m/s 742 mmHg 88%

    24 Octobre, Jeudi

    Heure Température Précipitation Vent Pression Humidité
    00:00 +24°C° 0.1 mm 1 m/s 741 mmHg 88%
    01:00 +24°C° 0.1 mm 1 m/s 741 mmHg 87%
    02:00 +24°C° 0 mm 1 m/s 741 mmHg 86%
    03:00 +24°C° 0 mm 1 m/s 741 mmHg 85%
    04:00 +23°C° 0 mm 1 m/s 741 mmHg 83%
    05:00 +24°C° 0 mm 1 m/s 741 mmHg 81%
    06:00 +25°C° 0 mm 1 m/s 742 mmHg 79%
    07:00 +26°C° 0 mm 1 m/s 743 mmHg 77%
    08:00 +28°C° 0.1 mm 2 m/s 743 mmHg 72%
    09:00 +29°C° 0.1 mm 2 m/s 743 mmHg 68%
    10:00 +31°C° 0.1 mm 3 m/s 743 mmHg 63%
    11:00 +31°C° 0.1 mm 3 m/s 742 mmHg 64%
    12:00 +33°C° 0.1 mm 3 m/s 741 mmHg 64%
    13:00 +33°C° 0.1 mm 4 m/s 741 mmHg 64%
    14:00 +31°C° 0.7 mm 3 m/s 740 mmHg 70%
    15:00 +30°C° 0.7 mm 3 m/s 740 mmHg 77%
    16:00 +29°C° 0.7 mm 2 m/s 740 mmHg 83%
    17:00 +28°C° 0.9 mm 2 m/s 740 mmHg 86%
    18:00 +27°C° 0.9 mm 1 m/s 741 mmHg 89%
    19:00 +26°C° 0.9 mm 1 m/s 741 mmHg 92%
    20:00 +25°C° 0.2 mm 1 m/s 742 mmHg 92%
    21:00 +25°C° 0.2 mm 1 m/s 742 mmHg 92%
    22:00 +23°C° 0.2 mm 0 m/s 743 mmHg 92%
    23:00 +23°C° 0.3 mm 0 m/s 742 mmHg 92%

    25 Octobre, Vendredi

    Heure Température Précipitation Vent Pression Humidité
    00:00 +23°C° 0.3 mm 0 m/s 742 mmHg 93%
    01:00 +25°C° 0.3 mm 1 m/s 742 mmHg 94%
    02:00 +25°C° 0.5 mm 1 m/s 742 mmHg 93%
    03:00 +24°C° 0.5 mm 1 m/s 742 mmHg 93%
    04:00 +24°C° 0.5 mm 1 m/s 742 mmHg 93%
    05:00 +25°C° 0 mm 1 m/s 742 mmHg 91%
    06:00 +25°C° 0 mm 1 m/s 743 mmHg 89%
    07:00 +25°C° 0 mm 1 m/s 743 mmHg 88%
    08:00 +27°C° 0 mm 1 m/s 744 mmHg 80%
    09:00 +29°C° 0 mm 1 m/s 744 mmHg 72%
    10:00 +31°C° 0 mm 1 m/s 744 mmHg 63%
    11:00 +32°C° 0.1 mm 1 m/s 743 mmHg 62%
    12:00 +32°C° 0.1 mm 2 m/s 742 mmHg 61%
    13:00 +32°C° 0.1 mm 2 m/s 741 mmHg 60%
    14:00 +32°C° 0.6 mm 2 m/s 741 mmHg 66%
    15:00 +31°C° 0.6 mm 2 m/s 740 mmHg 73%
    16:00 +30°C° 0.6 mm 2 m/s 740 mmHg 79%
    17:00 +29°C° 0.1 mm 1 m/s 741 mmHg 82%
    18:00 +27°C° 0.1 mm 1 m/s 741 mmHg 85%
    19:00 +26°C° 0.1 mm 1 m/s 742 mmHg 88%
    20:00 +26°C° 0.2 mm 1 m/s 742 mmHg 88%
    21:00 +25°C° 0.2 mm 1 m/s 742 mmHg 89%
    22:00 +25°C° 0.2 mm 2 m/s 743 mmHg 89%
    23:00 +25°C° 0 mm 1 m/s 742 mmHg 87%

    26 Octobre, Samedi

    Heure Température Précipitation Vent Pression Humidité
    00:00 +25°C° 0 mm 1 m/s 742 mmHg 86%
    01:00 +25°C° 0 mm 1 m/s 742 mmHg 84%
    02:00 +25°C° 0 mm 1 m/s 742 mmHg 82%
    03:00 +23°C° 0 mm 0 m/s 742 mmHg 80%
    04:00 +23°C° 0 mm 0 m/s 741 mmHg 79%
    05:00 +24°C° 0 mm 0 m/s 742 mmHg 78%
    06:00 +24°C° 0 mm 0 m/s 742 mmHg 77%
    07:00 +25°C° 0 mm 0 m/s 743 mmHg 76%
    08:00 +28°C° 0 mm 1 m/s 743 mmHg 70%
    09:00 +30°C° 0 mm 1 m/s 743 mmHg 65%
    10:00 +32°C° 0 mm 2 m/s 743 mmHg 60%
    11:00 +32°C° 0 mm 2 m/s 743 mmHg 60%
    12:00 +34°C° 0 mm 2 m/s 742 mmHg 59%
    13:00 +34°C° 0 mm 2 m/s 741 mmHg 59%
    14:00 +32°C° 0.5 mm 2 m/s 741 mmHg 66%
    15:00 +31°C° 0.5 mm 2 m/s 740 mmHg 73%
    16:00 +30°C° 0.5 mm 2 m/s 740 mmHg 80%
    17:00 +29°C° 0.8 mm 1 m/s 740 mmHg 84%
    18:00 +28°C° 0.8 mm 1 m/s 741 mmHg 88%
    19:00 +26°C° 0.8 mm 1 m/s 741 mmHg 92%
    20:00 +26°C° 0.1 mm 1 m/s 742 mmHg 93%
    21:00 +26°C° 0.1 mm 1 m/s 742 mmHg 93%
    22:00 +25°C° 0.1 mm 1 m/s 742 mmHg 93%
    23:00 +25°C° 0 mm 1 m/s 742 mmHg 93%

    27 Octobre, Dimanche

    Heure Température Précipitation Vent Pression Humidité
    00:00 +25°C° 0 mm 1 m/s 742 mmHg 92%
    01:00 +24°C° 0 mm 1 m/s 742 mmHg 92%
    02:00 +24°C° 0 mm 1 m/s 742 mmHg 91%
    03:00 +24°C° 0 mm 1 m/s 741 mmHg 90%
    04:00 +24°C° 0 mm 1 m/s 741 mmHg 89%
    05:00 +25°C° 0 mm 1 m/s 742 mmHg 86%
    06:00 +26°C° 0 mm 1 m/s 743 mmHg 83%
    07:00 +26°C° 0 mm 1 m/s 743 mmHg 80%
    08:00 +28°C° 0 mm 1 m/s 743 mmHg 74%
    09:00 +30°C° 0 mm 2 m/s 743 mmHg 68%
    10:00 +32°C° 0 mm 2 m/s 743 mmHg 62%
    11:00 +32°C° 0 mm 2 m/s 742 mmHg 61%
    12:00 +34°C° 0 mm 3 m/s 742 mmHg 60%
    13:00 +34°C° 0 mm 3 m/s 741 mmHg 59%
    14:00 +33°C° 0.1 mm 3 m/s 740 mmHg 64%
    15:00 +32°C° 0.1 mm 2 m/s 740 mmHg 69%
    16:00 +31°C° 0.1 mm 2 m/s 740 mmHg 74%
    17:00 +29°C° 0.9 mm 2 m/s 740 mmHg 80%
    18:00 +28°C° 0.9 mm 2 m/s 741 mmHg 87%
    19:00 +26°C° 0.9 mm 1 m/s 741 mmHg 93%
    20:00 +26°C° 0.2 mm 1 m/s 742 mmHg 93%
    21:00 +26°C° 0.2 mm 1 m/s 742 mmHg 93%
    22:00 +25°C° 0.2 mm 2 m/s 742 mmHg 93%
    23:00 +25°C° 0 mm 2 m/s 742 mmHg 92%
    Voir plus